Regional Weather Roundup
Issued by NWS

Home | Current Version | Previous Version | Text Only | Print | Product List | Glossary On
Versions: 1 2 3 4 5 6 7 8 9 10 11 12 13 14 15 16 17 18 19 20 21 22 23 24 25 26 27 28 29 30 31 32 33 34 35 36 37 38 39 40 41 42 43 44 45 46 47 48 49 50
267
ASUS43 KMPX 132010
RWRMN
WEATHER ROUNDUP FOR MINNESOTA
NATIONAL WEATHER SERVICE TWIN CITIES/CHANHASSEN MN
200 PM CST WED DEC 13 2017


NOTE: "FAIR" INDICATES FEW OR NO CLOUDS BELOW 12,000 FEET WITH NO
SIGNIFICANT WEATHER AND/OR OBSTRUCTIONS TO VISIBILITY. N/A MEANS
CURRENT SKY AND/OR WEATHER CONDITIONS ARE NOT AVAILABLE.

MNZ060>063-068>070-132100-
   Twin Cities Metro

CITY           SKY/WX    TMP DP  RH WIND       PRES   REMARKS
TWIN CITIES    CLOUDY    25  18  74 NW15G25   29.63R WCI  13
ST PAUL        CLOUDY    24  18  77 NW23G30   29.64R WCI   9
CRYSTAL        CLOUDY    24  15  68 NW16      29.63R WCI  11
BLAINE         CLOUDY    25  18  74 NW18      29.63R WCI  11
LAKEVILLE      CLOUDY    23  18  80 NW21G26   29.61R WCI   8
EDEN PRAIRIE   CLOUDY    25  17  72 N20G25    29.62R WCI  11
SOUTH ST PAUL  CLOUDY    25  18  74 N15       29.62R WCI  12
LAKE ELMO      CLOUDY    25  19  80 NW15G21   29.62R WCI  12
$$
MNZ001>005-007-008-013>017-022>024-027-028-132100-
   Northwest Minnesota

CITY           SKY/WX    TMP DP  RH WIND       PRES   REMARKS
BEMIDJI        LGT SNOW  16  12  85 N10       29.73S WCI   3
HALLOCK        FLURRIES  21  18  86 N17G23    29.84R WCI   7
ROSEAU         MOSUNNY   16  10  79 N9        29.81R WCI   4
WARROAD        SUNNY     16  10  79 N10       29.81R WCI   3
THIEF RVR FALL FLURRIES  19  15  84 N15       29.79R WCI   5
CROOKSTON      CLOUDY    21  19  93 N17       29.81S WCI   7
FOSSTON        LGT SNOW  18  16  93 N13       29.77R WCI   4
DETROIT LAKES  CLOUDY    23  21  93 N23G30    29.75R WCI   7
MOORHEAD       CLOUDY    25  21  86 N20       29.81R WCI  11
PARK RAPIDS    LGT SNOW  18  14  84 N10       29.72R FOG     WCI   6
MAHNOMEN       LGT SNOW  19  17  91 N15       29.76R WCI   5
$$
MNZ006-009>011-018-025>026-132100-
   North Central Minnesota

CITY           SKY/WX    TMP DP  RH WIND       PRES   REMARKS
BAUDETTE       PTSUNNY   15   9  76 NE8       29.77R WCI   4
FLAG ISLAND    SUNNY     12   9  85 N9        29.80R WCI   0
INTL FALLS     CLOUDY    19  12  74 NE6       29.75R HAZE    WCI  11
WASKISH        CLOUDY    18  12  79 N5        29.74F HAZE    WCI  11
BIG FORK       FLURRIES  21  16  79 N6        29.71R WCI  14
LONGVILLE      LGT SNOW  18  12  79 NW3       29.71R
GRAND RAPIDS   LGT SNOW  20  15  81 N13       29.70R WCI   7
CRANE LAKE     LGT SNOW  18  12  79 N3        29.75R
ORR            MIX PCPN  19  12  73 N3        29.69R
COOK           LGT SNOW  19  16  86 N5        29.70R WCI  13
WALKER         FLURRIES  16  12  84 N9        29.73R WCI   5
$$
MNZ012-019>021-037-132100-
   Northeast Minnesota

CITY           SKY/WX    TMP DP  RH WIND       PRES   REMARKS
DULUTH         LGT SNOW  22  19  89 NE8       29.63R VSB 3/4 WCI  12
ELY            CLOUDY    18  12  79 NE7       29.68R WCI   8
HIBBING        MIX PCPN  20  13  74 N9        29.67R WCI   9
EVELETH        SUNNY     20  12  71 NE8       29.67R WCI  10
DULUTH HARBOR  LGT SNOW  27  23  86 NE21      29.67R WCI  13
TWO HARBORS    LGT SNOW  27  21  80 NE6       29.63R VSB 1   WCI  20
SILVER BAY     SNOW      25  21  86 NE8       29.64R VSB 1/4 WCI  16
GRAND MARAIS     N/A     19  12  74 N8G18     29.71R WCI   9
G MARAIS ARPRT FLURRIES  10   5  79 N10G18    29.64R WCI  -3
$$
MNZ029>031-032-039>041-046>048-054>057-064-132100-
   West Central Minnesota

CITY           SKY/WX    TMP DP  RH WIND       PRES   REMARKS
FERGUS FALLS   CLOUDY    25  21  86 N21G31    29.80R WCI  10
WHEATON        CLOUDY    30  25  80 NW18G26   29.81R WCI  18
MORRIS         CLOUDY    28  25  86 N25G36    29.75R WCI  14
ALEXANDRIA     CLOUDY    25  19  78 N24G39    29.71R WCI   9
ELBOW LAKE     CLOUDY    25  22  89 N23G31    29.76R FOG     WCI  10
WADENA         CLOUDY    19  18  93 N14G21    29.71R WCI   6
GLENWOOD       MOSUNNY   27  21  80 NW26G35   29.70R WCI  11
APPLETON       CLOUDY    34  25  69 NW20G32   29.77R WCI  22
BENSON         CLOUDY    28  25  86 N26G36    29.76R WCI  13
ORTONVILLE     CLOUDY    32  25  74 N24G30    29.78R WCI  19
MADISON        CLOUDY    36  27  69 NW28      29.78R
WILLMAR        CLOUDY    30  25  80 NW26G35   29.71R WCI  16
$$
MNZ033>034-036-042>043-049>051-058-059-132100-
   Central Minnesota

CITY           SKY/WX    TMP DP  RH WIND       PRES   REMARKS
ST CLOUD       CLOUDY    23  19  85 N14G23    29.68R WCI  11
SAUK CENTRE    CLOUDY    24  20  87 NW20      29.70R WCI   9
PAYNESVILLE    CLOUDY    26  23  88 NW20G25   29.69R WCI  12
AITKIN         FLURRIES  18  14  86 NW12G17   29.67R WCI   5
PINE RIVER     LGT SNOW  18  12  79 N10       29.74R WCI   6
BRAINERD       LGT SNOW  20  13  74 N20       29.70R WCI   4
STAPLES        CLOUDY    19  16  86 N14       29.71R WCI   6
LONG PRAIRIE   CLOUDY    23  19  86 NW15G23   29.69R WCI  10
LITTLE FALLS   CLOUDY    23  16  74 NW8       29.70R WCI  14
LITCHFIELD     CLOUDY    28  25  86 NW21G29   29.68R WCI  15
BUFFALO        CLOUDY    25  19  80 NW10G20   29.68R WCI  15
MAPLE LAKE     CLOUDY    25  22  87 NW14      29.68R WCI  14
HUTCHINSON     CLOUDY    28  24  83 NW20G35   29.67R WCI  15
$$
MNZ037-044-045-052-053-132100-
   East Central Minnesota

CITY           SKY/WX    TMP DP  RH WIND       PRES   REMARKS
PRINCETON      CLOUDY    25  18  74 NW12G18   29.66R WCI  14
MORA           CLOUDY    21  18  86 NW16G23   29.66R WCI   7
CAMBRIDGE      CLOUDY    25  16  68 NW10G21   29.65R WCI  15
RUSH CITY      CLOUDY    23  18  78 NW9G18    29.63R WCI  13
MOOSE LAKE     FLURRIES  27  19  74 N8        29.63R WCI  18
HINCKLEY       CLOUDY    27  21  80 NW10      29.63R WCI  17
CLOQUET        LGT SNOW  23  18  80 N9G17     29.64R WCI  13
MCGREGOR       CLOUDY    23  19  86 NW15      29.66R WCI  10
$$
MNZ071>073-080-081-089-090-097-098-132100-
   Southwest Minnesota

CITY           SKY/WX    TMP DP  RH WIND       PRES   REMARKS
MONTEVIDEO     CLOUDY    32  25  74 N24G32    29.75S WCI  19
GRANITE FALLS  CLOUDY    34  26  72 NW26G38   29.76R WCI  21
CANBY          CLOUDY    34  28  81 NW17      29.79R WCI  23
MARSHALL       CLOUDY    32  25  75 N29G38    29.75R WCI  18
REDWOOD FALLS  CLOUDY    31  22  69 NW18G37   29.71R WCI  19
OLIVIA         CLOUDY    30  25  80 NW26G39   29.70R WCI  16
PIPESTONE      CLOUDY    34  28  80 N20G33    29.74S WCI  22
WINDOM           N/A     34  18  51 NW39G46   29.68R WCI  18
WORTHINGTON    CLOUDY    32  27  80 NW31G40   29.73R WCI  17
JACKSON        CLOUDY    32  25  74 MISG      29.68R
SLAYTON        CLOUDY    32  26  80 NW24G35   29.73F WCI  19
$$
MNZ065>067-074>077-082>085-091>093-132100-
   South Central Minnesota

CITY           SKY/WX    TMP DP  RH WIND       PRES   REMARKS
MANKATO        CLOUDY    29  24  82 NW23G32   29.64R WCI  15
NEW ULM        CLOUDY    28  21  74 NW29G37   29.68R WCI  13
ST JAMES       CLOUDY    30  25  80 NW23G33   29.69R WCI  17
FAIRMONT       CLOUDY    32  26  78 NW26G36   29.66R WCI  18
GLENCOE        CLOUDY    29  25  84 NW18G25   29.65R WCI  17
FARIBAULT      CLOUDY    27  21  80 NW18G30   29.61R WCI  13
OWATONNA       CLOUDY    28  23  80 NW25G33   29.59R WCI  14
WASECA         CLOUDY    30  27  86 NW25G38   29.62R WCI  16
ALBERT LEA     CLOUDY    28  23  80 NW21G29   29.59R WCI  15
$$
MNZ078>079-086>088-094>096-132100-
   Southeast Minnesota

CITY           SKY/WX    TMP DP  RH WIND       PRES   REMARKS
ROCHESTER      CLOUDY    25  20  81 NW30G39   29.53R WCI   8
RED WING       CLOUDY    25  16  68 N9G21     29.58R WCI  15
STANTON        CLOUDY    26  19  73 N21G26    29.60R WCI  12
DODGE CENTER   CLOUDY    25  21  86 NW30G43   29.55R WCI   8
WINONA           N/A     28  21  74 NW18G28   29.54R WCI  16
AUSTIN         CLOUDY    30  25  80 NW26G37   29.55R WCI  16
PRESTON        CLOUDY    26  21  83 NW24G36   29.51R WCI  10
$$
ABBREVIATIONS USED IN REMARKS
   TC - TEMPERATURES IN CELSIUS
  WCI - WIND CHILL INDEX
   HX - HEAT INDEX
  VSB - VISIBILITY
$$




USA.gov is the U.S. government's official web portal to all federal, state and local government web resources and services.